www.cux-wetter.de
Wetterdaten: Freitag, 24.08.2007
Datum Zeit Temp. A. Feuchte A. Luftdruck Regen Wind Richtung Richtung Sonnenschein Solar Taupunkt Windchill Windben
24.08.2007 00:04 18,5 C 95 % 1016,5 hPa 0,0 l/m 11,0 km/h (2 Bft) N-NO 20 0 min 0 W/m 17,7 C 16,6 C 11,0 km/h (2 Bft)
24.08.2007 00:09 18,4 C 95 % 1016,5 hPa 0,0 l/m 12,1 km/h (2 Bft) N-NO 20 0 min 0 W/m 17,6 C 16,2 C 12,1 km/h (2 Bft)
24.08.2007 00:14 18,4 C 95 % 1016,5 hPa 0,0 l/m 10,8 km/h (2 Bft) N-NO 20 0 min 0 W/m 17,6 C 16,6 C 10,8 km/h (2 Bft)
24.08.2007 00:19 18,3 C 95 % 1016,5 hPa 0,0 l/m 6,9 km/h (2 Bft) N-NO 15 0 min 0 W/m 17,5 C 18,1 C 6,9 km/h (2 Bft)
24.08.2007 00:24 18,2 C 95 % 1016,5 hPa 0,0 l/m 10,3 km/h (2 Bft) N-NO 20 0 min 0 W/m 17,4 C 16,5 C 10,3 km/h (2 Bft)
24.08.2007 00:29 18,2 C 95 % 1016,5 hPa 0,0 l/m 6,7 km/h (2 Bft) N-NO 30 0 min 0 W/m 17,4 C 18,1 C 6,7 km/h (2 Bft)
24.08.2007 00:34 18,2 C 95 % 1016,5 hPa 0,0 l/m 0,3 km/h (0 Bft) N 5 0 min 0 W/m 17,4 C 18,2 C 0,3 km/h (0 Bft)
24.08.2007 00:39 18,0 C 95 % 1016,5 hPa 0,0 l/m 5,8 km/h (2 Bft) N-NO 15 0 min 0 W/m 17,2 C 18,0 C 5,8 km/h (2 Bft)
24.08.2007 00:43 18,0 C 95 % 1016,5 hPa 0,0 l/m 4,1 km/h (1 Bft) N-NO 30 0 min 0 W/m 17,2 C 18,0 C 4,1 km/h (1 Bft)
24.08.2007 00:49 18,0 C 95 % 1016,5 hPa 0,0 l/m 8,9 km/h (2 Bft) N-NO 15 0 min 0 W/m 17,2 C 16,9 C 8,9 km/h (2 Bft)
24.08.2007 00:54 18,0 C 95 % 1016,5 hPa 0,0 l/m 7,5 km/h (2 Bft) N-NO 20 0 min 0 W/m 17,2 C 17,5 C 7,5 km/h (2 Bft)
24.08.2007 00:59 18,0 C 95 % 1016,5 hPa 0,0 l/m 5,1 km/h (1 Bft) N-NO 20 0 min 0 W/m 17,2 C 18,0 C 5,1 km/h (1 Bft)
24.08.2007 01:04 18,0 C 95 % 1016,5 hPa 0,0 l/m 5,5 km/h (2 Bft) N-NO 15 0 min 0 W/m 17,2 C 18,0 C 5,5 km/h (2 Bft)
24.08.2007 01:09 17,9 C 95 % 1016,5 hPa 0,0 l/m 7,7 km/h (2 Bft) N-NO 25 0 min 0 W/m 17,1 C 17,3 C 7,7 km/h (2 Bft)
24.08.2007 01:14 17,9 C 95 % 1016,5 hPa 0,0 l/m 5,8 km/h (2 Bft) N-NO 20 0 min 0 W/m 17,1 C 17,9 C 5,8 km/h (2 Bft)
24.08.2007 01:19 17,9 C 96 % 1016,5 hPa 0,0 l/m 5,5 km/h (2 Bft) N-NO 30 0 min 0 W/m 17,3 C 17,9 C 5,5 km/h (2 Bft)
24.08.2007 01:24 17,8 C 96 % 1016,5 hPa 0,0 l/m 5,2 km/h (1 Bft) N-NO 20 0 min 0 W/m 17,2 C 17,8 C 5,2 km/h (1 Bft)
24.08.2007 01:29 17,8 C 96 % 1016,5 hPa 0,0 l/m 0,3 km/h (0 Bft) N-NO 30 0 min 0 W/m 17,2 C 17,8 C 0,3 km/h (0 Bft)
24.08.2007 01:34 17,7 C 96 % 1016,5 hPa 0,0 l/m 2,7 km/h (1 Bft) N 10 0 min 0 W/m 17,1 C 17,7 C 2,7 km/h (1 Bft)
24.08.2007 01:39 17,6 C 96 % 1016,5 hPa 0,0 l/m 4,0 km/h (1 Bft) N 10 0 min 0 W/m 17,0 C 17,6 C 4,0 km/h (1 Bft)
24.08.2007 01:44 17,6 C 96 % 1016,5 hPa 0,0 l/m 6,5 km/h (2 Bft) N 10 0 min 0 W/m 17,0 C 17,6 C 6,5 km/h (2 Bft)
24.08.2007 01:49 17,5 C 96 % 1016,5 hPa 0,0 l/m 1,0 km/h (0 Bft) N-NO 20 0 min 0 W/m 16,9 C 17,5 C 1,0 km/h (0 Bft)
24.08.2007 01:54 17,5 C 96 % 1016,5 hPa 0,0 l/m 4,6 km/h (1 Bft) N-NO 15 0 min 0 W/m 16,9 C 17,5 C 4,6 km/h (1 Bft)
24.08.2007 01:59 17,4 C 96 % 1016,5 hPa 0,0 l/m 3,6 km/h (1 Bft) N-NO 20 0 min 0 W/m 16,8 C 17,4 C 3,6 km/h (1 Bft)
24.08.2007 02:04 17,4 C 96 % 1016,5 hPa 0,0 l/m 3,1 km/h (1 Bft) N 5 0 min 0 W/m 16,8 C 17,4 C 3,1 km/h (1 Bft)
24.08.2007 02:09 17,3 C 96 % 1016,5 hPa 0,0 l/m 3,1 km/h (1 Bft) N 5 0 min 0 W/m 16,7 C 17,3 C 3,1 km/h (1 Bft)
24.08.2007 02:14 17,2 C 96 % 1016,5 hPa 0,0 l/m 5,6 km/h (2 Bft) N 10 0 min 0 W/m 16,6 C 17,2 C 5,6 km/h (2 Bft)
24.08.2007 02:19 17,2 C 96 % 1016,5 hPa 0,0 l/m 3,1 km/h (1 Bft) N-NO 15 0 min 0 W/m 16,6 C 17,2 C 3,1 km/h (1 Bft)
24.08.2007 02:24 17,1 C 96 % 1016,5 hPa 0,0 l/m 2,8 km/h (1 Bft) N-NO 30 0 min 0 W/m 16,5 C 17,1 C 2,8 km/h (1 Bft)
24.08.2007 02:29 17,0 C 96 % 1016,5 hPa 0,0 l/m 0,0 km/h (0 Bft) N-NO 30 0 min 0 W/m 16,4 C 17,0 C 0,0 km/h (0 Bft)
24.08.2007 02:34 16,9 C 96 % 1016,5 hPa 0,0 l/m 0,0 km/h (0 Bft) N-NO 30 0 min 0 W/m 16,3 C 16,9 C 0,0 km/h (0 Bft)
24.08.2007 02:39 16,8 C 96 % 1016,5 hPa 0,0 l/m 0,0 km/h (0 Bft) N-NO 30 0 min 0 W/m 16,2 C 16,8 C 0,0 km/h (0 Bft)
24.08.2007 02:44 16,8 C 96 % 1016,5 hPa 0,0 l/m 0,0 km/h (0 Bft) N-NO 25 0 min 0 W/m 16,2 C 16,8 C 0,0 km/h (0 Bft)
24.08.2007 02:49 16,7 C 96 % 1016,5 hPa 0,0 l/m 0,0 km/h (0 Bft) N-NO 25 0 min 0 W/m 16,1 C 16,7 C 0,0 km/h (0 Bft)
24.08.2007 02:54 16,7 C 96 % 1016,5 hPa 0,0 l/m 0,0 km/h (0 Bft) N-NO 25 0 min 0 W/m 16,1 C 16,7 C 0,0 km/h (0 Bft)
24.08.2007 02:59 16,6 C 96 % 1016,5 hPa 0,0 l/m 0,0 km/h (0 Bft) N-NO 25 0 min 0 W/m 16,0 C 16,6 C 0,0 km/h (0 Bft)
24.08.2007 03:04 16,6 C 96 % 1016,5 hPa 0,0 l/m 0,0 km/h (0 Bft) N-NO 25 0 min 0 W/m 16,0 C 16,6 C 0,0 km/h (0 Bft)
24.08.2007 03:09 16,5 C 96 % 1016,5 hPa 0,0 l/m 0,0 km/h (0 Bft) N-NO 25 0 min 0 W/m 15,9 C 16,5 C 0,0 km/h (0 Bft)
24.08.2007 03:14 16,4 C 96 % 1016,5 hPa 0,0 l/m 0,0 km/h (0 Bft) N-NO 25 0 min 0 W/m 15,8 C 16,4 C 0,0 km/h (0 Bft)
24.08.2007 03:19 16,4 C 96 % 1016,5 hPa 0,0 l/m 0,0 km/h (0 Bft) N-NO 25 0 min 0 W/m 15,8 C 16,4 C 0,0 km/h (0 Bft)
24.08.2007 03:24 16,3 C 96 % 1016,5 hPa 0,0 l/m 0,0 km/h (0 Bft) N-NO 25 0 min 0 W/m 15,7 C 16,3 C 0,0 km/h (0 Bft)
24.08.2007 03:29 16,3 C 96 % 1016,5 hPa 0,0 l/m 0,0 km/h (0 Bft) N-NO 25 0 min 0 W/m 15,7 C 16,3 C 0,0 km/h (0 Bft)
24.08.2007 03:34 16,2 C 96 % 1016,5 hPa 0,0 l/m 0,0 km/h (0 Bft) N-NO 25 0 min 0 W/m 15,6 C 16,2 C 0,0 km/h (0 Bft)
24.08.2007 03:39 16,1 C 96 % 1016,5 hPa 0,0 l/m 0,0 km/h (0 Bft) N-NO 25 0 min 0 W/m 15,5 C 16,1 C 0,0 km/h (0 Bft)
24.08.2007 03:44 16,0 C 96 % 1016,5 hPa 0,0 l/m 0,0 km/h (0 Bft) N-NO 25 0 min 0 W/m 15,4 C 16,0 C 0,0 km/h (0 Bft)
24.08.2007 03:49 15,8 C 96 % 1016,5 hPa 0,0 l/m 0,0 km/h (0 Bft) N-NO 25 0 min 0 W/m 15,2 C 15,8 C 0,0 km/h (0 Bft)
24.08.2007 03:54 15,8 C 96 % 1016,5 hPa 0,0 l/m 0,0 km/h (0 Bft) N-NO 30 0 min 0 W/m 15,2 C 15,8 C 0,0 km/h (0 Bft)
24.08.2007 03:59 15,6 C 96 % 1016,5 hPa 0,0 l/m 0,0 km/h (0 Bft) S-SW 200 0 min 0 W/m 15,0 C 15,6 C 0,0 km/h (0 Bft)
24.08.2007 04:04 15,6 C 96 % 1016,5 hPa 0,0 l/m 0,0 km/h (0 Bft) S-SW 200 0 min 0 W/m 15,0 C 15,6 C 0,0 km/h (0 Bft)
24.08.2007 04:09 15,6 C 96 % 1016,5 hPa 0,0 l/m 0,0 km/h (0 Bft) S-SW 200 0 min 0 W/m 15,0 C 15,6 C 0,0 km/h (0 Bft)
24.08.2007 04:14 15,6 C 96 % 1016,5 hPa 0,0 l/m 0,0 km/h (0 Bft) S-SW 200 0 min 0 W/m 15,0 C 15,6 C 0,0 km/h (0 Bft)
24.08.2007 04:19 15,6 C 96 % 1016,5 hPa 0,0 l/m 0,0 km/h (0 Bft) S-SW 200 0 min 0 W/m 15,0 C 15,6 C 0,0 km/h (0 Bft)
24.08.2007 04:24 15,6 C 96 % 1017,5 hPa 0,3 l/m 0,0 km/h (0 Bft) S-SW 200 0 min 0 W/m 15,0 C 15,6 C 0,0 km/h (0 Bft)
24.08.2007 04:29 15,6 C 96 % 1017,5 hPa 0,0 l/m 0,0 km/h (0 Bft) S-SW 200 0 min 0 W/m 15,0 C 15,6 C 0,0 km/h (0 Bft)
24.08.2007 04:34 15,6 C 96 % 1017,5 hPa 0,0 l/m 0,0 km/h (0 Bft) S-SW 200 0 min 0 W/m 15,0 C 15,6 C 0,0 km/h (0 Bft)
24.08.2007 04:39 15,6 C 96 % 1017,5 hPa 0,0 l/m 0,0 km/h (0 Bft) S-SW 200 0 min 0 W/m 15,0 C 15,6 C 0,0 km/h (0 Bft)
24.08.2007 04:44 15,6 C 96 % 1017,5 hPa 0,0 l/m 0,0 km/h (0 Bft) S-SW 200 0 min 0 W/m 15,0 C 15,6 C 0,0 km/h (0 Bft)
24.08.2007 04:49 15,5 C 96 % 1017,5 hPa 0,0 l/m 0,0 km/h (0 Bft) S-SW 200 0 min 0 W/m 14,9 C 15,5 C 0,0 km/h (0 Bft)
24.08.2007 04:54 15,3 C 96 % 1017,5 hPa 0,0 l/m 0,0 km/h (0 Bft) S-SW 200 0 min 0 W/m 14,7 C 15,3 C 0,0 km/h (0 Bft)
24.08.2007 04:59 15,2 C 96 % 1017,5 hPa 0,0 l/m 0,0 km/h (0 Bft) S-SW 200 0 min 0 W/m 14,6 C 15,2 C 0,0 km/h (0 Bft)
24.08.2007 05:04 15,1 C 96 % 1017,5 hPa 0,0 l/m 0,0 km/h (0 Bft) N 355 0 min 0 W/m 14,5 C 15,1 C 0,0 km/h (0 Bft)
24.08.2007 05:09 15,1 C 96 % 1017,5 hPa 0,0 l/m 0,3 km/h (0 Bft) N 355 0 min 0 W/m 14,5 C 15,1 C 0,3 km/h (0 Bft)
24.08.2007 05:14 15,2 C 96 % 1017,5 hPa 0,0 l/m 0,1 km/h (0 Bft) N 350 0 min 0 W/m 14,6 C 15,2 C 0,1 km/h (0 Bft)
24.08.2007 05:19 15,6 C 97 % 1017,5 hPa 0,0 l/m 5,7 km/h (2 Bft) N 350 0 min 0 W/m 15,1 C 15,6 C 5,7 km/h (2 Bft)
24.08.2007 05:24 16,2 C 97 % 1017,5 hPa 0,0 l/m 6,4 km/h (2 Bft) N 350 0 min 0 W/m 15,7 C 16,2 C 6,4 km/h (2 Bft)
24.08.2007 05:29 16,6 C 97 % 1017,5 hPa 0,0 l/m 8,9 km/h (2 Bft) N 355 0 min 0 W/m 16,1 C 15,4 C 8,9 km/h (2 Bft)
24.08.2007 05:34 16,8 C 97 % 1017,5 hPa 0,0 l/m 10,1 km/h (2 Bft) N 350 0 min 0 W/m 16,3 C 15,1 C 10,1 km/h (2 Bft)
24.08.2007 05:39 17,1 C 98 % 1017,5 hPa 0,0 l/m 12,5 km/h (2 Bft) N 360 0 min 0 W/m 16,8 C 14,5 C 12,5 km/h (2 Bft)
24.08.2007 05:44 17,2 C 98 % 1017,5 hPa 0,0 l/m 10,1 km/h (2 Bft) N 360 0 min 0 W/m 16,9 C 15,5 C 10,1 km/h (2 Bft)
24.08.2007 05:49 17,3 C 98 % 1017,5 hPa 0,0 l/m 15,5 km/h (3 Bft) N 360 0 min 0 W/m 17,0 C 13,8 C 15,5 km/h (3 Bft)
24.08.2007 05:54 17,2 C 98 % 1017,5 hPa 0,0 l/m 13,6 km/h (3 Bft) N-NW 345 0 min 0 W/m 16,9 C 14,3 C 13,6 km/h (3 Bft)
24.08.2007 05:59 17,2 C 98 % 1017,5 hPa 0,0 l/m 14,8 km/h (3 Bft) N 10 0 min 0 W/m 16,9 C 13,9 C 14,8 km/h (3 Bft)
24.08.2007 06:04 17,1 C 98 % 1017,5 hPa 0,0 l/m 14,8 km/h (3 Bft) N 10 0 min 0 W/m 16,8 C 13,8 C 14,8 km/h (3 Bft)
24.08.2007 06:09 17,0 C 98 % 1017,5 hPa 0,0 l/m 12,0 km/h (2 Bft) N 5 0 min 0 W/m 16,7 C 14,6 C 12,0 km/h (2 Bft)
24.08.2007 06:14 16,9 C 97 % 1017,5 hPa 0,0 l/m 12,7 km/h (3 Bft) N 5 0 min 0 W/m 16,4 C 14,2 C 12,7 km/h (3 Bft)
24.08.2007 06:19 16,9 C 97 % 1017,5 hPa 0,0 l/m 10,5 km/h (2 Bft) N-NO 15 0 min 0 W/m 16,4 C 15,0 C 10,5 km/h (2 Bft)
24.08.2007 06:24 16,8 C 97 % 1017,5 hPa 0,0 l/m 9,8 km/h (2 Bft) N 5 0 min 0 W/m 16,3 C 15,2 C 9,8 km/h (2 Bft)
24.08.2007 06:29 16,8 C 97 % 1017,5 hPa 0,0 l/m 8,9 km/h (2 Bft) N 5 0 min 0 W/m 16,3 C 15,6 C 8,9 km/h (2 Bft)
24.08.2007 06:34 16,8 C 97 % 1017,5 hPa 0,0 l/m 8,7 km/h (2 Bft) N 10 0 min 0 W/m 16,3 C 15,7 C 8,7 km/h (2 Bft)
24.08.2007 06:39 16,7 C 97 % 1017,5 hPa 0,0 l/m 7,1 km/h (2 Bft) N-NO 15 0 min 0 W/m 16,2 C 16,3 C 7,1 km/h (2 Bft)
24.08.2007 06:44 16,6 C 97 % 1017,5 hPa 0,0 l/m 4,6 km/h (1 Bft) N-NO 15 0 min 0 W/m 16,1 C 16,6 C 4,6 km/h (1 Bft)
24.08.2007 06:49 16,6 C 97 % 1017,5 hPa 0,0 l/m 5,3 km/h (1 Bft) N 10 0 min 0 W/m 16,1 C 16,6 C 5,3 km/h (1 Bft)
24.08.2007 06:54 16,5 C 97 % 1017,5 hPa 0,0 l/m 1,2 km/h (1 Bft) N 360 0 min 0 W/m 16,0 C 16,5 C 1,2 km/h (1 Bft)
24.08.2007 06:59 16,5 C 97 % 1017,5 hPa 0,0 l/m 0,7 km/h (0 Bft) N 355 0 min 0 W/m 16,0 C 16,5 C 0,7 km/h (0 Bft)
24.08.2007 07:03 16,4 C 97 % 1018,5 hPa 0,0 l/m 0,3 km/h (0 Bft) N 355 0 min 0 W/m 15,9 C 16,4 C 0,3 km/h (0 Bft)
24.08.2007 07:09 16,4 C 97 % 1018,5 hPa 0,0 l/m 0,0 km/h (0 Bft) N 355 0 min 0 W/m 15,9 C 16,4 C 0,0 km/h (0 Bft)
24.08.2007 07:14 16,4 C 97 % 1018,5 hPa 0,0 l/m 5,2 km/h (1 Bft) N 360 0 min 0 W/m 15,9 C 16,4 C 5,2 km/h (1 Bft)
24.08.2007 07:19 16,4 C 97 % 1018,5 hPa 0,0 l/m 0,8 km/h (0 Bft) N-NO 20 0 min 0 W/m 15,9 C 16,4 C 0,8 km/h (0 Bft)
24.08.2007 07:24 16,4 C 97 % 1018,5 hPa 0,0 l/m 0,3 km/h (0 Bft) N-NO 15 0 min 0 W/m 15,9 C 16,4 C 0,3 km/h (0 Bft)
24.08.2007 07:29 16,4 C 97 % 1018,5 hPa 0,0 l/m 0,1 km/h (0 Bft) N 10 0 min 0 W/m 15,9 C 16,4 C 0,1 km/h (0 Bft)
24.08.2007 07:34 16,4 C 97 % 1018,5 hPa 0,0 l/m 0,8 km/h (0 Bft) N 360 0 min 0 W/m 15,9 C 16,4 C 0,8 km/h (0 Bft)
24.08.2007 07:39 16,4 C 97 % 1018,5 hPa 0,0 l/m 0,3 km/h (0 Bft) N 355 0 min 0 W/m 15,9 C 16,4 C 0,3 km/h (0 Bft)
24.08.2007 07:44 16,4 C 97 % 1018,5 hPa 0,0 l/m 2,7 km/h (1 Bft) N 355 0 min 0 W/m 15,9 C 16,4 C 2,7 km/h (1 Bft)
24.08.2007 07:49 16,6 C 97 % 1018,5 hPa 0,0 l/m 0,0 km/h (0 Bft) N 355 0 min 0 W/m 16,1 C 16,6 C 0,0 km/h (0 Bft)
24.08.2007 07:54 16,8 C 97 % 1018,5 hPa 0,0 l/m 5,0 km/h (1 Bft) N 360 0 min 0 W/m 16,3 C 16,8 C 5,0 km/h (1 Bft)
24.08.2007 07:59 16,7 C 97 % 1018,5 hPa 0,0 l/m 4,0 km/h (1 Bft) N 355 0 min 0 W/m 16,2 C 16,7 C 4,0 km/h (1 Bft)
24.08.2007 08:04 16,8 C 97 % 1018,5 hPa 0,0 l/m 4,3 km/h (1 Bft) N-NW 330 0 min 0 W/m 16,3 C 16,8 C 4,3 km/h (1 Bft)
24.08.2007 08:09 16,9 C 97 % 1018,5 hPa 0,0 l/m 0,6 km/h (0 Bft) NW 325 0 min 0 W/m 16,4 C 16,9 C 0,6 km/h (0 Bft)
24.08.2007 08:14 17,0 C 98 % 1018,5 hPa 0,0 l/m 0,0 km/h (0 Bft) N-NW 335 0 min 0 W/m 16,7 C 17,0 C 0,0 km/h (0 Bft)
24.08.2007 08:19 17,1 C 98 % 1018,5 hPa 0,0 l/m 6,4 km/h (2 Bft) NW 310 0 min 0 W/m 16,8 C 17,1 C 6,4 km/h (2 Bft)
24.08.2007 08:24 17,1 C 98 % 1018,5 hPa 0,0 l/m 5,3 km/h (1 Bft) W-NW 295 0 min 0 W/m 16,8 C 17,1 C 5,3 km/h (1 Bft)
24.08.2007 08:29 17,2 C 98 % 1018,5 hPa 0,0 l/m 3,6 km/h (1 Bft) W-NW 285 0 min 0 W/m 16,9 C 17,2 C 3,6 km/h (1 Bft)
24.08.2007 08:34 17,2 C 98 % 1018,5 hPa 0,0 l/m 6,4 km/h (2 Bft) N-NW 335 0 min 0 W/m 16,9 C 17,2 C 6,4 km/h (2 Bft)
24.08.2007 08:39 17,3 C 98 % 1018,5 hPa 0,0 l/m 7,0 km/h (2 Bft) NW 315 0 min 0 W/m 17,0 C 17,0 C 7,0 km/h (2 Bft)
24.08.2007 08:44 17,4 C 98 % 1019,5 hPa 0,0 l/m 5,6 km/h (2 Bft) NW 310 0 min 0 W/m 17,1 C 17,4 C 5,6 km/h (2 Bft)
24.08.2007 08:49 17,5 C 98 % 1019,5 hPa 0,0 l/m 3,8 km/h (1 Bft) N-NW 345 0 min 0 W/m 17,2 C 17,5 C 3,8 km/h (1 Bft)
24.08.2007 08:54 17,6 C 98 % 1019,5 hPa 0,0 l/m 9,2 km/h (2 Bft) NW 305 0 min 0 W/m 17,3 C 16,3 C 9,2 km/h (2 Bft)
24.08.2007 08:59 17,6 C 98 % 1019,5 hPa 0,0 l/m 8,5 km/h (2 Bft) NW 325 0 min 0 W/m 17,3 C 16,6 C 8,5 km/h (2 Bft)
24.08.2007 09:04 17,7 C 98 % 1019,5 hPa 0,0 l/m 8,9 km/h (2 Bft) NW 320 0 min 0 W/m 17,4 C 16,5 C 8,9 km/h (2 Bft)
24.08.2007 09:09 17,9 C 98 % 1019,5 hPa 0,0 l/m 9,7 km/h (2 Bft) NW 310 0 min 0 W/m 17,6 C 16,4 C 9,7 km/h (2 Bft)
24.08.2007 09:14 18,0 C 97 % 1019,5 hPa 0,0 l/m 8,2 km/h (2 Bft) W-NW 290 0 min 0 W/m 17,5 C 17,2 C 8,2 km/h (2 Bft)
24.08.2007 09:19 18,3 C 97 % 1019,5 hPa 0,0 l/m 8,7 km/h (2 Bft) W-NW 300 0 min 0 W/m 17,8 C 17,3 C 8,7 km/h (2 Bft)
24.08.2007 09:24 18,3 C 97 % 1019,5 hPa 0,0 l/m 9,5 km/h (2 Bft) NW 310 0 min 0 W/m 17,8 C 17,0 C 9,5 km/h (2 Bft)
24.08.2007 09:29 18,4 C 97 % 1019,5 hPa 0,0 l/m 10,2 km/h (2 Bft) N-NW 330 0 min 0 W/m 17,9 C 16,8 C 10,2 km/h (2 Bft)
24.08.2007 09:34 18,7 C 97 % 1019,5 hPa 0,0 l/m 8,0 km/h (2 Bft) NW 315 0 min 0 W/m 18,2 C 18,0 C 8,0 km/h (2 Bft)
24.08.2007 09:39 18,8 C 96 % 1019,5 hPa 0,0 l/m 11,6 km/h (2 Bft) W-NW 300 0 min 0 W/m 18,1 C 16,8 C 11,6 km/h (2 Bft)
24.08.2007 09:44 18,8 C 95 % 1019,5 hPa 0,0 l/m 11,6 km/h (2 Bft) W-NW 300 0 min 0 W/m 18,0 C 16,8 C 11,6 km/h (2 Bft)
24.08.2007 09:49 18,7 C 95 % 1019,5 hPa 0,0 l/m 22,2 km/h (4 Bft) NW 325 0 min 0 W/m 17,9 C 14,1 C 22,2 km/h (4 Bft)
24.08.2007 09:54 18,7 C 95 % 1019,5 hPa 0,0 l/m 12,8 km/h (3 Bft) W-NW 295 0 min 0 W/m 17,9 C 16,3 C 12,8 km/h (3 Bft)
24.08.2007 09:59 18,8 C 95 % 1019,5 hPa 0,0 l/m 11,5 km/h (2 Bft) N-NW 330 0 min 0 W/m 18,0 C 16,8 C 11,5 km/h (2 Bft)
24.08.2007 10:04 18,9 C 94 % 1019,5 hPa 0,0 l/m 13,0 km/h (3 Bft) NW 320 0 min 0 W/m 17,9 C 16,5 C 13,0 km/h (3 Bft)
24.08.2007 10:09 19,0 C 94 % 1019,5 hPa 0,0 l/m 11,0 km/h (2 Bft) NW 315 0 min 0 W/m 18,0 C 17,2 C 11,0 km/h (2 Bft)
24.08.2007 10:14 19,1 C 92 % 1019,5 hPa 0,0 l/m 12,8 km/h (3 Bft) NW 310 0 min 0 W/m 17,8 C 16,8 C 12,8 km/h (3 Bft)
24.08.2007 10:19 19,2 C 90 % 1020,5 hPa 0,0 l/m 11,0 km/h (2 Bft) NW 305 0 min 0 W/m 17,5 C 17,4 C 11,0 km/h (2 Bft)
24.08.2007 10:24 19,5 C 90 % 1020,5 hPa 0,0 l/m 10,6 km/h (2 Bft) NW 315 0 min 0 W/m 17,8 C 17,9 C 10,6 km/h (2 Bft)
24.08.2007 10:29 19,6 C 90 % 1020,5 hPa 0,0 l/m 7,5 km/h (2 Bft) W-NW 290 0 min 0 W/m 17,9 C 19,1 C 7,5 km/h (2 Bft)
24.08.2007 10:34 19,8 C 90 % 1020,5 hPa 0,0 l/m 9,2 km/h (2 Bft) NW 320 0 min 0 W/m 18,1 C 18,7 C 9,2 km/h (2 Bft)
24.08.2007 10:39 20,0 C 89 % 1020,5 hPa 0,0 l/m 12,2 km/h (2 Bft) N-NW 330 0 min 0 W/m 18,1 C 18,0 C 12,2 km/h (2 Bft)
24.08.2007 10:44 19,9 C 88 % 1020,5 hPa 0,0 l/m 10,0 km/h (2 Bft) NW 320 0 min 0 W/m 17,8 C 18,5 C 10,0 km/h (2 Bft)
24.08.2007 10:49 19,9 C 87 % 1020,5 hPa 0,0 l/m 9,4 km/h (2 Bft) N-NW 345 0 min 0 W/m 17,7 C 18,7 C 9,4 km/h (2 Bft)
24.08.2007 10:54 19,9 C 86 % 1020,5 hPa 0,0 l/m 15,3 km/h (3 Bft) N-NW 340 0 min 0 W/m 17,5 C 17,1 C 15,3 km/h (3 Bft)
24.08.2007 10:59 19,9 C 86 % 1020,5 hPa 0,0 l/m 7,6 km/h (2 Bft) NW 310 0 min 0 W/m 17,5 C 19,4 C 7,6 km/h (2 Bft)
24.08.2007 11:04 19,8 C 85 % 1020,5 hPa 0,0 l/m 11,7 km/h (2 Bft) N-NW 345 0 min 0 W/m 17,2 C 17,9 C 11,7 km/h (2 Bft)
24.08.2007 11:09 19,9 C 86 % 1020,5 hPa 0,0 l/m 8,6 km/h (2 Bft) N-NW 345 0 min 0 W/m 17,5 C 19,0 C 8,6 km/h (2 Bft)
24.08.2007 11:14 20,0 C 86 % 1020,5 hPa 0,0 l/m 10,3 km/h (2 Bft) NW 325 0 min 0 W/m 17,6 C 18,5 C 10,3 km/h (2 Bft)
24.08.2007 11:19 20,0 C 85 % 1020,5 hPa 0,0 l/m 12,3 km/h (2 Bft) NW 315 0 min 0 W/m 17,4 C 17,9 C 12,3 km/h (2 Bft)
24.08.2007 11:24 19,9 C 83 % 1020,5 hPa 0,0 l/m 12,3 km/h (2 Bft) NW 315 0 min 0 W/m 16,9 C 17,8 C 12,3 km/h (2 Bft)
24.08.2007 11:29 19,7 C 84 % 1020,5 hPa 0,0 l/m 14,8 km/h (3 Bft) N-NW 330 0 min 0 W/m 16,9 C 16,9 C 14,8 km/h (3 Bft)
24.08.2007 11:34 19,6 C 85 % 1020,5 hPa 0,0 l/m 12,8 km/h (3 Bft) NW 325 0 min 0 W/m 17,0 C 17,3 C 12,8 km/h (3 Bft)
24.08.2007 11:39 19,6 C 84 % 1020,5 hPa 0,0 l/m 10,8 km/h (2 Bft) NW 315 0 min 0 W/m 16,8 C 17,9 C 10,8 km/h (2 Bft)
24.08.2007 11:44 19,6 C 84 % 1020,5 hPa 0,0 l/m 10,8 km/h (2 Bft) NW 315 0 min 0 W/m 16,8 C 17,9 C 10,8 km/h (2 Bft)
24.08.2007 11:49 19,6 C 84 % 1020,5 hPa 0,0 l/m 8,3 km/h (2 Bft) N 350 0 min 0 W/m 16,8 C 18,8 C 8,3 km/h (2 Bft)
24.08.2007 11:54 19,5 C 84 % 1020,5 hPa 0,0 l/m 10,0 km/h (2 Bft) NW 325 0 min 0 W/m 16,7 C 18,1 C 10,0 km/h (2 Bft)
24.08.2007 11:59 19,5 C 83 % 1020,5 hPa 0,0 l/m 11,5 km/h (2 Bft) W-NW 285 0 min 0 W/m 16,5 C 17,6 C 11,5 km/h (2 Bft)
24.08.2007 12:04 19,5 C 84 % 1020,5 hPa 0,0 l/m 11,5 km/h (2 Bft) W-NW 285 0 min 0 W/m 16,7 C 17,6 C 11,5 km/h (2 Bft)
24.08.2007 12:09 19,6 C 83 % 1020,5 hPa 0,0 l/m 7,0 km/h (2 Bft) W-NW 285 0 min 0 W/m 16,6 C 19,3 C 7,0 km/h (2 Bft)
24.08.2007 12:14 19,6 C 82 % 1020,5 hPa 0,0 l/m 10,2 km/h (2 Bft) W-NW 295 0 min 0 W/m 16,4 C 18,1 C 10,2 km/h (2 Bft)
24.08.2007 12:19 19,6 C 81 % 1021,5 hPa 0,0 l/m 11,4 km/h (2 Bft) NW 310 0 min 0 W/m 16,2 C 17,7 C 11,4 km/h (2 Bft)
24.08.2007 12:24 19,6 C 82 % 1021,5 hPa 0,0 l/m 11,6 km/h (2 Bft) W-NW 300 0 min 0 W/m 16,4 C 17,7 C 11,6 km/h (2 Bft)
24.08.2007 12:29 19,7 C 82 % 1021,5 hPa 0,0 l/m 5,1 km/h (1 Bft) NW 305 0 min 0 W/m 16,5 C 19,7 C 5,1 km/h (1 Bft)
24.08.2007 12:34 19,9 C 81 % 1021,5 hPa 0,0 l/m 9,4 km/h (2 Bft) W-NW 285 0 min 0 W/m 16,5 C 18,7 C 9,4 km/h (2 Bft)
24.08.2007 12:39 19,9 C 81 % 1021,5 hPa 0,0 l/m 8,9 km/h (2 Bft) NW 310 0 min 0 W/m 16,5 C 18,9 C 8,9 km/h (2 Bft)
24.08.2007 12:44 19,8 C 80 % 1021,5 hPa 0,0 l/m 10,6 km/h (2 Bft) NW 305 0 min 0 W/m 16,2 C 18,2 C 10,6 km/h (2 Bft)
24.08.2007 12:49 20,0 C 81 % 1021,5 hPa 0,0 l/m 12,6 km/h (3 Bft) W-NW 290 0 min 0 W/m 16,6 C 17,9 C 12,6 km/h (3 Bft)
24.08.2007 12:54 20,2 C 80 % 1020,5 hPa 0,0 l/m 15,3 km/h (3 Bft) NW 310 0 min 0 W/m 16,6 C 17,4 C 15,3 km/h (3 Bft)
24.08.2007 12:59 20,3 C 79 % 1021,5 hPa 0,0 l/m 13,5 km/h (3 Bft) N-NW 330 0 min 0 W/m 16,5 C 18,0 C 13,5 km/h (3 Bft)
24.08.2007 13:04 20,5 C 79 % 1021,5 hPa 0,0 l/m 8,2 km/h (2 Bft) NW 305 0 min 0 W/m 16,7 C 19,8 C 8,2 km/h (2 Bft)
24.08.2007 13:09 20,6 C 80 % 1021,5 hPa 0,0 l/m 14,1 km/h (3 Bft) W-NW 290 0 min 0 W/m 17,0 C 18,2 C 14,1 km/h (3 Bft)
24.08.2007 13:14 20,8 C 79 % 1021,5 hPa 0,0 l/m 12,1 km/h (2 Bft) NW 320 0 min 0 W/m 17,0 C 18,9 C 12,1 km/h (2 Bft)
24.08.2007 13:19 20,8 C 77 % 1021,5 hPa 0,0 l/m 13,3 km/h (3 Bft) W 280 0 min 0 W/m 16,6 C 18,6 C 13,3 km/h (3 Bft)
24.08.2007 13:24 20,9 C 76 % 1021,5 hPa 0,0 l/m 10,9 km/h (2 Bft) W-NW 285 0 min 0 W/m 16,5 C 19,4 C 10,9 km/h (2 Bft)
24.08.2007 13:29 21,0 C 77 % 1021,5 hPa 0,0 l/m 20,8 km/h (4 Bft) NW 325 0 min 0 W/m 16,8 C 17,4 C 20,8 km/h (4 Bft)
24.08.2007 13:34 20,9 C 76 % 1021,5 hPa 0,0 l/m 16,1 km/h (3 Bft) W-NW 300 0 min 0 W/m 16,5 C 18,1 C 16,1 km/h (3 Bft)
24.08.2007 13:39 20,8 C 77 % 1021,5 hPa 0,0 l/m 16,1 km/h (3 Bft) W-NW 300 0 min 0 W/m 16,6 C 18,0 C 16,1 km/h (3 Bft)
24.08.2007 13:44 20,7 C 75 % 1021,5 hPa 0,0 l/m 13,6 km/h (3 Bft) NW 320 0 min 0 W/m 16,1 C 18,4 C 13,6 km/h (3 Bft)
24.08.2007 13:49 20,4 C 77 % 1021,5 hPa 0,0 l/m 12,5 km/h (2 Bft) NW 305 0 min 0 W/m 16,2 C 18,4 C 12,5 km/h (2 Bft)
24.08.2007 13:54 20,4 C 78 % 1021,5 hPa 0,0 l/m 13,3 km/h (3 Bft) W 280 0 min 0 W/m 16,4 C 18,1 C 13,3 km/h (3 Bft)
24.08.2007 13:59 20,4 C 78 % 1021,5 hPa 0,0 l/m 14,1 km/h (3 Bft) W-NW 300 0 min 0 W/m 16,4 C 17,9 C 14,1 km/h (3 Bft)
24.08.2007 14:04 20,7 C 77 % 1021,5 hPa 0,0 l/m 10,5 km/h (2 Bft) W-NW 300 0 min 0 W/m 16,5 C 19,3 C 10,5 km/h (2 Bft)
24.08.2007 14:09 20,7 C 75 % 1021,5 hPa 0,0 l/m 15,6 km/h (3 Bft) W-NW 300 0 min 0 W/m 16,1 C 18,0 C 15,6 km/h (3 Bft)
24.08.2007 14:14 20,5 C 76 % 1021,5 hPa 0,0 l/m 17,0 km/h (3 Bft) W 265 0 min 0 W/m 16,1 C 17,4 C 17,0 km/h (3 Bft)
24.08.2007 14:19 20,5 C 77 % 1021,5 hPa 0,0 l/m 10,8 km/h (2 Bft) W 270 0 min 0 W/m 16,3 C 18,9 C 10,8 km/h (2 Bft)
24.08.2007 14:24 20,9 C 76 % 1021,5 hPa 0,0 l/m 13,7 km/h (3 Bft) W-NW 295 0 min 0 W/m 16,5 C 18,6 C 13,7 km/h (3 Bft)
24.08.2007 14:29 21,0 C 75 % 1021,5 hPa 0,0 l/m 12,3 km/h (2 Bft) NW 305 0 min 0 W/m 16,4 C 19,1 C 12,3 km/h (2 Bft)
24.08.2007 14:34 21,2 C 75 % 1021,5 hPa 0,0 l/m 13,8 km/h (3 Bft) W-NW 290 0 min 0 W/m 16,6 C 19,0 C 13,8 km/h (3 Bft)
24.08.2007 14:39 21,1 C 73 % 1021,5 hPa 0,0 l/m 13,3 km/h (3 Bft) W-NW 285 0 min 0 W/m 16,1 C 19,0 C 13,3 km/h (3 Bft)
24.08.2007 14:44 21,3 C 75 % 1021,5 hPa 0,0 l/m 11,0 km/h (2 Bft) W-NW 300 0 min 0 W/m 16,7 C 19,8 C 11,0 km/h (2 Bft)
24.08.2007 14:49 21,4 C 75 % 1021,5 hPa 0,0 l/m 13,8 km/h (3 Bft) W-NW 295 0 min 0 W/m 16,8 C 19,2 C 13,8 km/h (3 Bft)
24.08.2007 14:54 21,5 C 73 % 1021,5 hPa 0,0 l/m 15,8 km/h (3 Bft) W-NW 295 0 min 0 W/m 16,4 C 18,9 C 15,8 km/h (3 Bft)
24.08.2007 14:59 21,5 C 74 % 1021,5 hPa 0,0 l/m 13,1 km/h (3 Bft) NW 315 0 min 0 W/m 16,7 C 19,5 C 13,1 km/h (3 Bft)
24.08.2007 15:04 21,5 C 74 % 1021,5 hPa 0,0 l/m 11,7 km/h (2 Bft) NW 310 0 min 0 W/m 16,7 C 19,8 C 11,7 km/h (2 Bft)
24.08.2007 15:09 21,6 C 75 % 1021,5 hPa 0,0 l/m 10,9 km/h (2 Bft) N-NW 335 0 min 0 W/m 17,0 C 20,2 C 10,9 km/h (2 Bft)
24.08.2007 15:14 21,8 C 74 % 1021,5 hPa 0,0 l/m 12,1 km/h (2 Bft) NW 310 0 min 0 W/m 17,0 C 20,1 C 12,1 km/h (2 Bft)
24.08.2007 15:19 21,9 C 73 % 1021,5 hPa 0,0 l/m 11,3 km/h (2 Bft) N-NW 330 0 min 0 W/m 16,8 C 20,4 C 11,3 km/h (2 Bft)
24.08.2007 15:24 21,8 C 72 % 1021,5 hPa 0,0 l/m 10,7 km/h (2 Bft) NW 310 0 min 0 W/m 16,5 C 20,4 C 10,7 km/h (2 Bft)
24.08.2007 15:29 21,8 C 73 % 1021,5 hPa 0,0 l/m 10,8 km/h (2 Bft) N-NW 345 0 min 0 W/m 16,7 C 20,4 C 10,8 km/h (2 Bft)
24.08.2007 15:34 21,9 C 74 % 1021,5 hPa 0,0 l/m 10,7 km/h (2 Bft) NW 320 0 min 0 W/m 17,0 C 20,5 C 10,7 km/h (2 Bft)
24.08.2007 15:39 22,0 C 73 % 1021,5 hPa 0,0 l/m 12,5 km/h (2 Bft) W-NW 295 0 min 0 W/m 16,9 C 20,2 C 12,5 km/h (2 Bft)
24.08.2007 15:44 22,1 C 74 % 1021,5 hPa 0,0 l/m 16,3 km/h (3 Bft) NW 305 0 min 0 W/m 17,2 C 19,5 C 16,3 km/h (3 Bft)
24.08.2007 15:49 22,0 C 72 % 1021,5 hPa 0,0 l/m 12,0 km/h (2 Bft) NW 325 0 min 0 W/m 16,7 C 20,3 C 12,0 km/h (2 Bft)
24.08.2007 15:54 21,8 C 73 % 1021,5 hPa 0,0 l/m 13,0 km/h (3 Bft) W 275 0 min 0 W/m 16,7 C 19,9 C 13,0 km/h (3 Bft)
24.08.2007 15:59 21,6 C 73 % 1021,5 hPa 0,0 l/m 13,8 km/h (3 Bft) NW 315 0 min 0 W/m 16,5 C 19,4 C 13,8 km/h (3 Bft)
24.08.2007 16:04 21,4 C 74 % 1021,5 hPa 0,0 l/m 8,3 km/h (2 Bft) NW 325 0 min 0 W/m 16,6 C 20,7 C 8,3 km/h (2 Bft)
24.08.2007 16:09 21,4 C 75 % 1021,5 hPa 0,0 l/m 12,6 km/h (3 Bft) NW 320 0 min 0 W/m 16,8 C 19,5 C 12,6 km/h (3 Bft)
24.08.2007 16:14 21,5 C 75 % 1021,5 hPa 0,0 l/m 12,7 km/h (3 Bft) NW 320 0 min 0 W/m 16,9 C 19,6 C 12,7 km/h (3 Bft)
24.08.2007 16:19 21,5 C 75 % 1021,5 hPa 0,0 l/m 13,0 km/h (3 Bft) NW 320 0 min 0 W/m 16,9 C 19,5 C 13,0 km/h (3 Bft)
24.08.2007 16:24 21,5 C 75 % 1021,5 hPa 0,0 l/m 11,6 km/h (2 Bft) NW 320 0 min 0 W/m 16,9 C 19,9 C 11,6 km/h (2 Bft)
24.08.2007 16:29 21,5 C 76 % 1021,5 hPa 0,0 l/m 12,1 km/h (2 Bft) N-NW 340 0 min 0 W/m 17,1 C 19,7 C 12,1 km/h (2 Bft)
24.08.2007 16:34 21,5 C 75 % 1021,5 hPa 0,0 l/m 14,3 km/h (3 Bft) N-NW 340 0 min 0 W/m 16,9 C 19,2 C 14,3 km/h (3 Bft)
24.08.2007 16:39 21,5 C 75 % 1021,5 hPa 0,0 l/m 13,2 km/h (3 Bft) N-NW 335 0 min 0 W/m 16,9 C 19,5 C 13,2 km/h (3 Bft)
24.08.2007 16:44 21,4 C 75 % 1021,5 hPa 0,0 l/m 14,1 km/h (3 Bft) NW 315 0 min 0 W/m 16,8 C 19,1 C 14,1 km/h (3 Bft)
24.08.2007 16:49 21,2 C 76 % 1021,5 hPa 0,0 l/m 13,3 km/h (3 Bft) NW 320 0 min 0 W/m 16,8 C 19,1 C 13,3 km/h (3 Bft)
24.08.2007 16:54 21,2 C 76 % 1021,5 hPa 0,0 l/m 13,0 km/h (3 Bft) NW 305 0 min 0 W/m 16,8 C 19,2 C 13,0 km/h (3 Bft)
24.08.2007 16:59 21,2 C 76 % 1021,5 hPa 0,0 l/m 14,0 km/h (3 Bft) N-NW 335 0 min 0 W/m 16,8 C 18,9 C 14,0 km/h (3 Bft)
24.08.2007 17:04 21,8 C 76 % 1021,5 hPa 0,0 l/m 12,1 km/h (2 Bft) NW 305 0 min 0 W/m 17,4 C 20,1 C 12,1 km/h (2 Bft)
24.08.2007 17:09 21,7 C 74 % 1021,5 hPa 0,0 l/m 10,5 km/h (2 Bft) NW 315 0 min 0 W/m 16,9 C 20,4 C 10,5 km/h (2 Bft)
24.08.2007 17:14 21,7 C 75 % 1021,5 hPa 0,0 l/m 10,5 km/h (2 Bft) N-NW 335 0 min 0 W/m 17,1 C 20,4 C 10,5 km/h (2 Bft)
24.08.2007 17:19 21,5 C 75 % 1021,5 hPa 0,0 l/m 13,9 km/h (3 Bft) NW 310 0 min 0 W/m 16,9 C 19,3 C 13,9 km/h (3 Bft)
24.08.2007 17:24 21,3 C 76 % 1021,5 hPa 0,0 l/m 15,1 km/h (3 Bft) NW 305 0 min 0 W/m 16,9 C 18,8 C 15,1 km/h (3 Bft)
24.08.2007 17:29 21,2 C 76 % 1021,5 hPa 0,0 l/m 13,3 km/h (3 Bft) NW 310 0 min 0 W/m 16,8 C 19,1 C 13,3 km/h (3 Bft)
24.08.2007 17:34 21,2 C 76 % 1021,5 hPa 0,0 l/m 14,3 km/h (3 Bft) NW 315 0 min 0 W/m 16,8 C 18,9 C 14,3 km/h (3 Bft)
24.08.2007 17:39 21,3 C 76 % 1021,5 hPa 0,0 l/m 12,3 km/h (2 Bft) NW 320 0 min 0 W/m 16,9 C 19,5 C 12,3 km/h (2 Bft)
24.08.2007 17:44 21,2 C 76 % 1021,5 hPa 0,0 l/m 12,7 km/h (3 Bft) N-NW 335 0 min 0 W/m 16,8 C 19,2 C 12,7 km/h (3 Bft)
24.08.2007 17:49 21,2 C 76 % 1021,5 hPa 0,0 l/m 10,0 km/h (2 Bft) W-NW 290 0 min 0 W/m 16,8 C 20,0 C 10,0 km/h (2 Bft)
24.08.2007 17:54 21,2 C 76 % 1021,5 hPa 0,0 l/m 13,1 km/h (3 Bft) NW 310 0 min 0 W/m 16,8 C 19,1 C 13,1 km/h (3 Bft)
24.08.2007 17:59 20,9 C 77 % 1021,5 hPa 0,0 l/m 15,8 km/h (3 Bft) NW 305 0 min 0 W/m 16,7 C 18,2 C 15,8 km/h (3 Bft)
24.08.2007 18:04 20,8 C 77 % 1021,5 hPa 0,0 l/m 7,6 km/h (2 Bft) NW 310 0 min 0 W/m 16,6 C 20,3 C 7,6 km/h (2 Bft)
24.08.2007 18:09 20,6 C 77 % 1021,5 hPa 0,0 l/m 15,1 km/h (3 Bft) W-NW 300 0 min 0 W/m 16,4 C 18,0 C 15,1 km/h (3 Bft)
24.08.2007 18:14 20,4 C 78 % 1021,5 hPa 0,0 l/m 16,3 km/h (3 Bft) NW 315 0 min 0 W/m 16,4 C 17,4 C 16,3 km/h (3 Bft)
24.08.2007 18:19 20,4 C 78 % 1021,5 hPa 0,0 l/m 13,3 km/h (3 Bft) NW 315 0 min 0 W/m 16,4 C 18,1 C 13,3 km/h (3 Bft)
24.08.2007 18:24 20,4 C 79 % 1021,5 hPa 0,0 l/m 11,3 km/h (2 Bft) NW 305 0 min 0 W/m 16,6 C 18,7 C 11,3 km/h (2 Bft)
24.08.2007 18:29 20,3 C 79 % 1021,5 hPa 0,0 l/m 15,3 km/h (3 Bft) N-NW 330 0 min 0 W/m 16,5 C 17,5 C 15,3 km/h (3 Bft)
24.08.2007 18:34 20,2 C 79 % 1021,5 hPa 0,0 l/m 12,7 km/h (3 Bft) NW 310 0 min 0 W/m 16,4 C 18,1 C 12,7 km/h (3 Bft)
24.08.2007 18:39 20,1 C 79 % 1021,5 hPa 0,0 l/m 14,3 km/h (3 Bft) N-NW 330 0 min 0 W/m 16,3 C 17,5 C 14,3 km/h (3 Bft)
24.08.2007 18:44 20,1 C 80 % 1021,5 hPa 0,0 l/m 13,8 km/h (3 Bft) N-NW 340 0 min 0 W/m 16,5 C 17,7 C 13,8 km/h (3 Bft)
24.08.2007 18:49 20,0 C 80 % 1021,5 hPa 0,0 l/m 13,7 km/h (3 Bft) N 360 0 min 0 W/m 16,4 C 17,6 C 13,7 km/h (3 Bft)
24.08.2007 18:54 19,9 C 80 % 1021,5 hPa 0,0 l/m 14,8 km/h (3 Bft) NW 320 0 min 0 W/m 16,3 C 17,2 C 14,8 km/h (3 Bft)
24.08.2007 18:59 19,9 C 80 % 1021,5 hPa 0,0 l/m 14,8 km/h (3 Bft) NW 320 0 min 0 W/m 16,3 C 17,2 C 14,8 km/h (3 Bft)
24.08.2007 19:04 19,8 C 80 % 1021,5 hPa 0,0 l/m 16,8 km/h (3 Bft) N-NW 340 0 min 0 W/m 16,2 C 16,6 C 16,8 km/h (3 Bft)
24.08.2007 19:09 19,6 C 81 % 1021,5 hPa 0,0 l/m 14,2 km/h (3 Bft) N 350 0 min 0 W/m 16,2 C 17,0 C 14,2 km/h (3 Bft)
24.08.2007 19:14 19,6 C 81 % 1021,5 hPa 0,0 l/m 13,3 km/h (3 Bft) N-NW 340 0 min 0 W/m 16,2 C 17,2 C 13,3 km/h (3 Bft)
24.08.2007 19:19 19,5 C 81 % 1021,5 hPa 0,0 l/m 11,6 km/h (2 Bft) N 350 0 min 0 W/m 16,1 C 17,6 C 11,6 km/h (2 Bft)
24.08.2007 19:24 19,5 C 81 % 1021,5 hPa 0,0 l/m 13,0 km/h (3 Bft) N-NW 345 0 min 0 W/m 16,1 C 17,2 C 13,0 km/h (3 Bft)
24.08.2007 19:29 19,4 C 82 % 1021,5 hPa 0,0 l/m 13,3 km/h (3 Bft) N-NW 340 0 min 0 W/m 16,2 C 17,0 C 13,3 km/h (3 Bft)
24.08.2007 19:34 19,2 C 82 % 1021,5 hPa 0,0 l/m 12,0 km/h (2 Bft) N-NW 345 0 min 0 W/m 16,0 C 17,1 C 12,0 km/h (2 Bft)
24.08.2007 19:39 19,1 C 82 % 1021,5 hPa 0,0 l/m 9,2 km/h (2 Bft) N-NW 330 0 min 0 W/m 16,0 C 17,9 C 9,2 km/h (2 Bft)
24.08.2007 19:44 19,1 C 82 % 1021,5 hPa 0,0 l/m 12,9 km/h (3 Bft) N-NW 340 0 min 0 W/m 16,0 C 16,7 C 12,9 km/h (3 Bft)
24.08.2007 19:49 18,9 C 82 % 1021,5 hPa 0,0 l/m 13,4 km/h (3 Bft) NW 325 0 min 0 W/m 15,8 C 16,3 C 13,4 km/h (3 Bft)
24.08.2007 19:54 18,9 C 83 % 1021,5 hPa 0,0 l/m 11,8 km/h (2 Bft) N-NW 330 0 min 0 W/m 15,9 C 16,8 C 11,8 km/h (2 Bft)
24.08.2007 19:59 18,9 C 83 % 1021,5 hPa 0,0 l/m 13,8 km/h (3 Bft) N-NW 335 0 min 0 W/m 15,9 C 16,2 C 13,8 km/h (3 Bft)
24.08.2007 20:04 18,8 C 83 % 1021,5 hPa 0,0 l/m 8,5 km/h (2 Bft) NW 325 0 min 0 W/m 15,8 C 17,9 C 8,5 km/h (2 Bft)
24.08.2007 20:09 18,8 C 83 % 1021,5 hPa 0,0 l/m 12,8 km/h (3 Bft) NW 320 0 min 0 W/m 15,8 C 16,4 C 12,8 km/h (3 Bft)
24.08.2007 20:14 18,7 C 83 % 1021,5 hPa 0,0 l/m 10,4 km/h (2 Bft) N-NW 330 0 min 0 W/m 15,8 C 17,1 C 10,4 km/h (2 Bft)
24.08.2007 20:19 18,6 C 83 % 1021,5 hPa 0,0 l/m 10,1 km/h (2 Bft) N-NW 335 0 min 0 W/m 15,7 C 17,1 C 10,1 km/h (2 Bft)
24.08.2007 20:24 18,6 C 83 % 1021,5 hPa 0,0 l/m 14,0 km/h (3 Bft) N-NW 330 0 min 0 W/m 15,7 C 15,8 C 14,0 km/h (3 Bft)
24.08.2007 20:29 18,4 C 83 % 1021,5 hPa 0,0 l/m 12,7 km/h (3 Bft) NW 320 0 min 0 W/m 15,5 C 16,0 C 12,7 km/h (3 Bft)
24.08.2007 20:34 18,4 C 83 % 1022,5 hPa 0,0 l/m 10,0 km/h (2 Bft) N 350 0 min 0 W/m 15,5 C 16,9 C 10,0 km/h (2 Bft)
24.08.2007 20:39 18,4 C 83 % 1022,5 hPa 0,0 l/m 7,4 km/h (2 Bft) NW 325 0 min 0 W/m 15,5 C 17,9 C 7,4 km/h (2 Bft)
24.08.2007 20:44 18,3 C 83 % 1022,5 hPa 0,0 l/m 8,5 km/h (2 Bft) N-NW 330 0 min 0 W/m 15,4 C 17,4 C 8,5 km/h (2 Bft)
24.08.2007 20:49 18,2 C 83 % 1022,5 hPa 0,0 l/m 10,3 km/h (2 Bft) N-NW 340 0 min 0 W/m 15,3 C 16,5 C 10,3 km/h (2 Bft)
24.08.2007 20:54 18,0 C 84 % 1022,5 hPa 0,0 l/m 10,7 km/h (2 Bft) N-NW 330 0 min 0 W/m 15,3 C 16,2 C 10,7 km/h (2 Bft)
24.08.2007 20:59 17,9 C 84 % 1022,5 hPa 0,0 l/m 8,3 km/h (2 Bft) NW 315 0 min 0 W/m 15,2 C 17,0 C 8,3 km/h (2 Bft)
24.08.2007 21:04 17,9 C 84 % 1022,5 hPa 0,0 l/m 12,8 km/h (3 Bft) N-NW 330 0 min 0 W/m 15,2 C 15,4 C 12,8 km/h (3 Bft)
24.08.2007 21:09 17,9 C 84 % 1022,5 hPa 0,0 l/m 10,1 km/h (2 Bft) NW 325 0 min 0 W/m 15,2 C 16,3 C 10,1 km/h (2 Bft)
24.08.2007 21:14 17,9 C 84 % 1022,5 hPa 0,0 l/m 8,9 km/h (2 Bft) N-NW 340 0 min 0 W/m 15,2 C 16,8 C 8,9 km/h (2 Bft)
24.08.2007 21:19 17,9 C 84 % 1022,5 hPa 0,0 l/m 6,8 km/h (2 Bft) N-NW 345 0 min 0 W/m 15,2 C 17,7 C 6,8 km/h (2 Bft)
24.08.2007 21:24 17,9 C 84 % 1022,5 hPa 0,0 l/m 9,0 km/h (2 Bft) N-NW 340 0 min 0 W/m 15,2 C 16,7 C 9,0 km/h (2 Bft)
24.08.2007 21:29 17,8 C 85 % 1022,5 hPa 0,0 l/m 9,5 km/h (2 Bft) N-NW 340 0 min 0 W/m 15,2 C 16,4 C 9,5 km/h (2 Bft)
24.08.2007 21:34 17,7 C 85 % 1022,5 hPa 0,0 l/m 5,4 km/h (2 Bft) N-NW 330 0 min 0 W/m 15,1 C 17,7 C 5,4 km/h (2 Bft)
24.08.2007 21:39 17,7 C 85 % 1022,5 hPa 0,0 l/m 6,7 km/h (2 Bft) N 355 0 min 0 W/m 15,1 C 17,6 C 6,7 km/h (2 Bft)
24.08.2007 21:44 17,7 C 85 % 1022,5 hPa 0,0 l/m 4,8 km/h (1 Bft) NW 315 0 min 0 W/m 15,1 C 17,7 C 4,8 km/h (1 Bft)
24.08.2007 21:49 17,7 C 86 % 1022,5 hPa 0,0 l/m 5,8 km/h (2 Bft) W-NW 300 0 min 0 W/m 15,3 C 17,7 C 5,8 km/h (2 Bft)
24.08.2007 21:54 17,8 C 86 % 1022,5 hPa 0,0 l/m 7,0 km/h (2 Bft) NW 315 0 min 0 W/m 15,4 C 17,5 C 7,0 km/h (2 Bft)
24.08.2007 21:59 17,7 C 85 % 1022,5 hPa 0,0 l/m 1,0 km/h (0 Bft) W-NW 300 0 min 0 W/m 15,1 C 17,7 C 1,0 km/h (0 Bft)
24.08.2007 22:04 17,7 C 86 % 1022,5 hPa 0,0 l/m 2,3 km/h (1 Bft) NW 315 0 min 0 W/m 15,3 C 17,7 C 2,3 km/h (1 Bft)
24.08.2007 22:09 17,6 C 86 % 1022,5 hPa 0,0 l/m 5,0 km/h (1 Bft) N-NW 330 0 min 0 W/m 15,2 C 17,6 C 5,0 km/h (1 Bft)
24.08.2007 22:14 17,6 C 86 % 1022,5 hPa 0,0 l/m 8,1 km/h (2 Bft) NW 320 0 min 0 W/m 15,2 C 16,8 C 8,1 km/h (2 Bft)
24.08.2007 22:19 17,6 C 86 % 1022,5 hPa 0,0 l/m 0,6 km/h (0 Bft) N-NW 330 0 min 0 W/m 15,2 C 17,6 C 0,6 km/h (0 Bft)
24.08.2007 22:24 17,5 C 86 % 1022,5 hPa 0,0 l/m 8,7 km/h (2 Bft) NW 305 0 min 0 W/m 15,1 C 16,4 C 8,7 km/h (2 Bft)
24.08.2007 22:29 17,5 C 86 % 1022,5 hPa 0,0 l/m 5,3 km/h (1 Bft) W 275 0 min 0 W/m 15,1 C 17,5 C 5,3 km/h (1 Bft)
24.08.2007 22:34 17,5 C 86 % 1022,5 hPa 0,0 l/m 5,9 km/h (2 Bft) NW 310 0 min 0 W/m 15,1 C 17,5 C 5,9 km/h (2 Bft)
24.08.2007 22:39 17,4 C 86 % 1022,5 hPa 0,0 l/m 0,9 km/h (0 Bft) NW 315 0 min 0 W/m 15,0 C 17,4 C 0,9 km/h (0 Bft)
24.08.2007 22:44 17,3 C 86 % 1022,5 hPa 0,0 l/m 3,1 km/h (1 Bft) NW 305 0 min 0 W/m 14,9 C 17,3 C 3,1 km/h (1 Bft)
24.08.2007 22:49 17,3 C 87 % 1022,5 hPa 0,0 l/m 5,4 km/h (2 Bft) NW 305 0 min 0 W/m 15,1 C 17,3 C 5,4 km/h (2 Bft)
24.08.2007 22:54 17,2 C 87 % 1022,5 hPa 0,0 l/m 4,2 km/h (1 Bft) W-NW 295 0 min 0 W/m 15,0 C 17,2 C 4,2 km/h (1 Bft)
24.08.2007 22:59 17,2 C 87 % 1022,5 hPa 0,0 l/m 0,3 km/h (0 Bft) W-NW 295 0 min 0 W/m 15,0 C 17,2 C 0,3 km/h (0 Bft)
24.08.2007 23:04 17,2 C 87 % 1022,5 hPa 0,0 l/m 0,0 km/h (0 Bft) NW 305 0 min 0 W/m 15,0 C 17,2 C 0,0 km/h (0 Bft)
24.08.2007 23:09 17,0 C 87 % 1022,5 hPa 0,0 l/m 0,4 km/h (0 Bft) NW 305 0 min 0 W/m 14,8 C 17,0 C 0,4 km/h (0 Bft)
24.08.2007 23:14 17,0 C 87 % 1022,5 hPa 0,0 l/m 7,0 km/h (2 Bft) NW 320 0 min 0 W/m 14,8 C 16,7 C 7,0 km/h (2 Bft)
24.08.2007 23:19 17,0 C 88 % 1022,5 hPa 0,0 l/m 4,7 km/h (1 Bft) W-NW 295 0 min 0 W/m 15,0 C 17,0 C 4,7 km/h (1 Bft)
24.08.2007 23:24 17,2 C 89 % 1022,5 hPa 0,0 l/m 5,5 km/h (2 Bft) W-NW 300 0 min 0 W/m 15,4 C 17,2 C 5,5 km/h (2 Bft)
24.08.2007 23:29 17,2 C 89 % 1022,5 hPa 0,0 l/m 7,4 km/h (2 Bft) W-NW 300 0 min 0 W/m 15,4 C 16,7 C 7,4 km/h (2 Bft)
24.08.2007 23:34 17,3 C 89 % 1022,5 hPa 0,0 l/m 10,7 km/h (2 Bft) NW 310 0 min 0 W/m 15,5 C 15,4 C 10,7 km/h (2 Bft)
24.08.2007 23:39 17,3 C 88 % 1022,5 hPa 0,0 l/m 5,9 km/h (2 Bft) W-NW 295 0 min 0 W/m 15,3 C 17,3 C 5,9 km/h (2 Bft)
24.08.2007 23:44 17,3 C 88 % 1022,5 hPa 0,0 l/m 7,3 km/h (2 Bft) NW 305 0 min 0 W/m 15,3 C 16,9 C 7,3 km/h (2 Bft)
24.08.2007 23:49 17,3 C 88 % 1022,5 hPa 0,0 l/m 7,3 km/h (2 Bft) NW 305 0 min 0 W/m 15,3 C 16,9 C 7,3 km/h (2 Bft)
24.08.2007 23:54 17,2 C 88 % 1022,5 hPa 0,0 l/m 11,4 km/h (2 Bft) NW 315 0 min 0 W/m 15,2 C 15,0 C 11,4 km/h (2 Bft)
24.08.2007 23:59 17,2 C 88 % 1022,5 hPa 0,0 l/m 10,1 km/h (2 Bft) W-NW 295 0 min 0 W/m 15,2 C 15,5 C 10,1 km/h (2 Bft)
_ Min-Zeit 05:04 15:24 00:04 - 02:29 - - - - 05:04 06:04 02:29
Minimum _ 15,1 C 72 % 1016,5 hPa - 0,0 km/h (0 Bft) - - - - 14,5 C 13,8 C 0,0 km/h (0 Bft)
_ Max-Zeit 15:44 05:39 20:34 04:24 09:49 - - 00:04 00:04 09:34 16:04 09:49
Maximum _ 22,1 C 98 % 1022,5 hPa 0,3 l/m 22,2 km/h
NW (4 Bft)
- - 0 min 0 W/m 18,2 C 20,7 C 22,2 km/h
N-NW (4 Bft)
Durchschnitt _ 18,6 C 87 % 1019,9 hPa #0,3 l/m 8,3 km/h (2 Bft) NW - #0 min. 0 W/m 16,4 C 17,4 C 8,3 km/h (2 Bft)
copyright by Holger Just